Location: *
(50.6089°N, 2.2719°E)
Time: 10:10:04
(UTC+00:00)

ATLAS 5 CENTAUR R/B - Visible Passes

Search period start: 19 January 2020 00:00
Search period end: 29 January 2020 00:00
Orbit: 550 x 1109 km, 63.4° (Epoch: 16 January)

Date Brightness Start Highest point End Pass type
(mag) Time Alt. Az. Time Alt. Az. Time Alt. Az.
19 Jan 1.6 16:57:53 10° SW 17:02:07 75° SE 17:06:57 10° NE visible
19 Jan 3.2 18:43:18 10° W 18:47:17 29° NNW 18:49:07 23° NNE visible
19 Jan 4.6 20:29:52 10° NW 20:30:39 13° NW 20:30:39 13° NW visible
20 Jan 3.1 18:24:06 10° W 18:28:06 30° NNW 18:30:44 19° NNE visible
20 Jan 4.3 20:10:40 10° NW 20:12:16 16° NNW 20:12:16 16° NNW visible
21 Jan 3.1 18:04:53 10° W 18:08:54 31° NNW 18:12:20 15° NNE visible
21 Jan 4.0 19:51:28 10° NW 19:53:53 19° NNW 19:53:53 19° NNW visible
22 Jan 3.0 17:45:41 10° W 17:49:43 32° NNW 17:53:55 12° NE visible
22 Jan 3.8 19:32:16 10° NW 19:35:27 20° N 19:35:27 20° N visible
23 Jan 3.0 17:26:29 10° W 17:30:32 33° NNW 17:35:09 10° NE visible
23 Jan 3.7 19:13:04 10° NW 19:16:40 20° N 19:17:01 20° N visible
23 Jan 4.9 20:58:28 10° NW 20:58:33 10° NW 20:58:33 10° NW visible
24 Jan 2.9 17:07:16 10° W 17:11:21 34° NNW 17:16:00 10° NE visible
24 Jan 3.7 18:53:51 10° NW 18:57:28 20° N 18:58:34 19° NNE visible
24 Jan 4.6 20:39:19 10° NW 20:40:07 14° NNW 20:40:07 14° NNW visible
25 Jan 3.7 18:34:39 10° NW 18:38:16 20° N 18:40:08 17° NNE visible
25 Jan 4.3 20:20:10 10° NW 20:21:40 17° NNW 20:21:40 17° NNW visible
26 Jan 3.7 18:15:26 10° NW 18:19:03 20° N 18:21:41 15° NNE visible
26 Jan 4.0 20:01:01 10° NW 20:03:13 20° NNW 20:03:13 20° NNW visible
27 Jan 3.6 17:56:14 10° NW 17:59:51 20° N 18:03:14 12° NE visible
27 Jan 3.7 19:41:52 10° NW 19:44:47 23° N 19:44:47 23° N visible
28 Jan 3.6 17:37:01 10° NW 17:40:38 21° N 17:44:39 10° NE visible
28 Jan 3.6 19:22:43 10° NW 19:26:21 24° N 19:26:21 24° N visible
28 Jan 4.8 21:07:13 10° NW 21:07:53 14° NW 21:07:53 14° NW visible
